WB4YDL Weather Reports


time (UTC)temp
F
wind
direction
speed
knots
gust
knots
rain 1hr
in
rain 24hr
in
rain mn
in
humidity
%
barometer
mb
20260906162455 93 318 3.5 3.5 0.00 0.00 0.00 71 1008.9
20260906161950 93 328 4.3 6.1 0.00 0.00 0.00 71 1008.7
20260906161449 93 337 2.6 2.6 0.00 0.00 0.00 72 1008.8
20260906160948 92 170 0.9 1.7 0.00 0.00 0.00 72 1008.9
20260906160442 92 80 4.3 5.2 0.00 0.00 0.00 70 1008.9
20260906155941 91 62 1.7 1.7 0.00 0.00 0.00 70 1008.9
20260906155434 92 121 0.9 0.9 0.00 0.00 0.00 71 1009.0
20260906154930 92 11 1.7 2.6 0.00 0.00 0.00 70 1008.9
20260906154425 91 145 0.9 0.9 0.00 0.00 0.00 71 1008.9
20260906153924 91 92 2.6 2.6 0.00 0.00 0.00 72 1009.1
20260906153423 92 57 4.3 5.2 0.00 0.00 0.00 69 1008.9
20260906152918 90 202 0.0 0.0 0.00 0.00 0.00 71 1008.9
20260906152413 91 253 0.9 1.7 0.00 0.00 0.00 71 1008.9
20260906151912 89 86 0.9 0.9 0.00 0.00 0.00 72 1008.7
20260906151408 89 98 2.6 2.6 0.00 0.00 0.00 71 1008.9
20260906150904 88 66 3.5 5.2 0.00 0.00 0.00 73 1008.8
20260906150358 88 90 5.2 7.0 0.00 0.00 0.00 75 1008.8
20260906145858 88 63 3.5 3.5 0.00 0.00 0.00 75 1008.7
20260906145356 87 117 2.6 2.6 0.00 0.00 0.00 79 1008.8
20260906144852 87 32 1.7 2.6 0.00 0.00 0.00 79 1008.6
20260906144347 86 145 3.5 3.5 0.00 0.00 0.00 78 1008.7
20260906143847 86 82 1.7 2.6 0.00 0.00 0.00 79 1008.6
20260906143343 86 61 0.9 0.9 0.00 0.00 0.00 81 1008.7
20260906142838 86 125 2.6 2.6 0.00 0.00 0.00 80 1008.7
20260906142333 86 94 1.7 1.7 0.00 0.00 0.00 83 1008.5
20260906141833 85 39 2.6 2.6 0.00 0.00 0.00 83 1008.7
20260906141322 85 358 3.5 3.5 0.00 0.00 0.00 83 1008.6
20260906140820 84 101 2.6 3.5 0.00 0.00 0.00 84 1009.0
20260906140316 84 43 2.6 2.6 0.00 0.00 0.00 84 1008.8
20260906135813 84 110 2.6 2.6 0.00 0.00 0.00 86 1008.8
20260906135308 84 5 3.5 3.5 0.00 0.00 0.00 84 1009.0
20260906134804 84 69 1.7 1.7 0.00 0.00 0.00 84 1008.8
20260906134258 83 84 1.7 1.7 0.00 0.00 0.00 86 1008.8
20260906133754 83 117 2.6 2.6 0.00 0.00 0.00 85 1008.8
20260906133250 83 89 0.0 0.9 0.00 0.00 0.00 86 1008.9
20260906132745 82 154 1.7 2.6 0.00 0.00 0.00 87 1008.9
20260906132240 82 163 1.7 2.6 0.00 0.00 0.00 88 1008.8
20260906131735 82 170 1.7 1.7 0.00 0.00 0.00 88 1008.7
20260906131225 81 110 0.9 0.9 0.00 0.00 0.00 89 1008.8
20260906130720 80 147 1.7 1.7 0.00 0.00 0.00 92 1008.6
20260906130215 80 161 2.6 2.6 0.00 0.00 0.00 92 1008.9
20260906125713 80 134 1.7 1.7 0.00 0.00 0.00 92 1008.7
20260906125211 79 149 1.7 1.7 0.00 0.00 0.00 94 1008.6
20260906124707 78 182 0.9 1.7 0.00 0.00 0.00 96 1008.7
20260906124202 77 182 0.9 1.7 0.00 0.00 0.00 98 1008.6
20260906123700 77 273 0.9 1.7 0.00 0.00 0.00 99 1008.4
20260906123156 76 179 1.7 2.6 0.00 0.00 0.00 99 1008.4
20260906122655 76 203 1.7 1.7 0.00 0.00 0.00 99 1008.3
20260906122151 76 238 0.0 0.0 0.00 0.00 0.00 99 1008.3
20260906121647 76 239 0.0 0.0 0.00 0.00 0.00 99 1008.1
20260906121143 74 239 0.0 0.0 0.00 0.00 0.00 99 1008.1
20260906120639 74 239 0.9 0.9 0.00 0.00 0.00 99 1008.2
20260906120136 74 238 0.0 0.0 0.00 0.00 0.00 99 1008.0
20260906115631 74 238 0.0 0.0 0.00 0.00 0.00 99 1008.0
20260906115126 74 238 0.0 0.0 0.00 0.00 0.00 99 1008.0
20260906114619 74 238 0.0 0.0 0.00 0.00 0.00 99 1007.7
20260906114115 74 238 0.0 0.0 0.00 0.00 0.00 99 1007.8
20260906113615 74 238 0.0 0.0 0.00 0.00 0.00 99 1007.7
20260906113109 74 238 0.0 0.0 0.00 0.00 0.00 99 1007.4
20260906112604 74 238 0.0 0.0 0.00 0.00 0.00 99 1007.5
20260906112101 74 239 0.0 0.0 0.00 0.00 0.00 99 1007.6
20260906111600 74 239 0.0 0.0 0.00 0.00 0.00 99 1007.5
20260906111055 74 237 0.0 0.9 0.00 0.00 0.00 99 1007.6
20260906110554 74 239 0.0 0.0 0.00 0.00 0.00 99 1007.6
20260906110054 74 239 0.0 0.0 0.00 0.00 0.00 99 1007.4
20260906105548 74 239 0.0 0.0 0.00 0.00 0.00 99 1007.2
20260906105045 74 239 0.0 0.0 0.00 0.00 0.00 99 1007.3
20260906104543 74 239 0.0 0.0 0.00 0.00 0.00 99 1006.9
20260906104038 74 239 0.0 0.0 0.00 0.00 0.00 99 1007.2
20260906103536 74 239 0.9 0.9 0.00 0.00 0.00 99 1007.0
20260906103031 74 239 0.0 0.0 0.00 0.00 0.00 99 1007.0
20260906102526 74 239 0.0 0.0 0.00 0.00 0.00 99 1007.0
20260906102021 74 240 0.9 0.9 0.00 0.00 0.00 99 1007.0
20260906101521 75 230 0.9 0.9 0.00 0.00 0.00 99 1006.8
20260906101016 75 229 0.9 0.9 0.00 0.00 0.00 99 1006.6
20260906100511 75 229 0.0 0.0 0.00 0.00 0.00 99 1006.4
20260906100006 75 229 0.0 0.0 0.00 0.00 0.00 99 1006.7
20260906095501 75 229 0.0 0.0 0.00 0.00 0.00 99 1006.9
20260906094956 74 229 0.0 0.0 0.00 0.00 0.00 99 1006.8
20260906094455 74 229 0.0 0.0 0.00 0.00 0.00 99 1006.8
20260906093952 74 229 0.0 0.0 0.00 0.00 0.00 99 1006.7
20260906093447 74 229 0.0 0.0 0.00 0.00 0.00 99 1006.7
20260906092942 74 229 0.0 0.0 0.00 0.00 0.00 99 1006.6
20260906092441 75 229 0.0 0.0 0.00 0.00 0.00 99 1006.6
20260906091936 75 230 0.9 0.9 0.00 0.00 0.00 99 1006.7
20260906091432 75 222 0.0 0.0 0.00 0.00 0.00 99 1006.8
20260906090929 75 218 0.0 0.0 0.00 0.00 0.00 99 1006.5
20260906090424 75 203 0.9 0.9 0.00 0.00 0.00 99 1006.7
20260906085919 75 203 0.9 0.9 0.00 0.00 0.00 99 1006.7
20260906085417 75 211 0.9 0.9 0.00 0.00 0.00 99 1006.6
20260906084917 75 213 0.0 0.0 0.00 0.00 0.00 99 1006.8
20260906084412 75 210 0.0 0.9 0.00 0.00 0.00 99 1006.7
20260906083911 75 205 0.0 0.0 0.00 0.00 0.00 99 1006.6
20260906083407 75 205 0.0 0.0 0.00 0.00 0.00 99 1006.4
20260906082906 75 205 0.0 0.0 0.00 0.00 0.00 99 1006.8
20260906082401 75 206 0.0 0.0 0.00 0.00 0.00 99 1006.7
20260906081858 76 205 0.0 0.0 0.00 0.00 0.00 99 1006.6
20260906081353 76 204 0.9 0.9 0.00 0.00 0.00 99 1006.6
20260906080849 76 225 0.0 0.9 0.00 0.00 0.00 99 1006.5
20260906080345 76 226 0.0 0.0 0.00 0.00 0.00 99 1006.8
20260906075844 76 226 0.0 0.0 0.00 0.00 0.00 99 1006.8
20260906075339 76 227 0.0 0.0 0.00 0.00 0.00 99 1006.7
20260906074835 76 227 0.0 0.0 0.00 0.00 0.00 99 1006.5
20260906074334 76 226 0.0 0.0 0.00 0.00 0.00 99 1006.5
20260906073833 76 226 0.0 0.0 0.00 0.00 0.00 99 1006.6
20260906073328 76 226 0.0 0.0 0.00 0.00 0.00 99 1006.5
20260906072825 76 227 0.0 0.0 0.00 0.00 0.00 99 1006.4
20260906072320 77 227 0.0 0.0 0.00 0.00 0.00 99 1006.5
20260906071816 76 226 0.0 0.0 0.00 0.00 0.00 99 1006.3
20260906071316 76 227 0.0 0.0 0.00 0.00 0.00 99 1006.5
20260906070812 76 226 0.0 0.0 0.00 0.00 0.00 99 1006.2
20260906070308 76 227 0.0 0.0 0.00 0.00 0.00 99 1006.4
20260906065802 77 228 0.9 0.9 0.00 0.00 0.00 99 1006.4
20260906065257 77 223 0.9 0.9 0.00 0.00 0.00 99 1006.5
20260906064753 77 219 0.9 0.9 0.00 0.00 0.00 99 1006.6
20260906064249 77 217 0.0 0.0 0.00 0.00 0.00 99 1006.5
20260906063744 77 217 0.0 0.0 0.00 0.00 0.00 99 1006.6
20260906063239 77 216 0.9 0.9 0.00 0.00 0.00 99 1006.9
20260906062734 77 219 0.0 0.9 0.00 0.00 0.00 99 1006.8
20260906062233 77 221 0.0 0.0 0.00 0.00 0.00 99 1006.9
20260906061729 77 222 0.0 0.0 0.00 0.00 0.00 99 1007.0
20260906061226 77 222 0.0 0.9 0.00 0.00 0.00 99 1007.0
20260906060721 77 194 0.0 0.0 0.00 0.00 0.00 99 1007.0
20260906060218 77 195 0.0 0.0 0.00 0.00 0.00 99 1007.0
20260906055714 77 193 0.0 0.0 0.00 0.00 0.00 99 1006.8
20260906055209 77 193 0.0 0.0 0.00 0.00 0.00 99 1007.3
20260906054703 77 223 0.0 0.0 0.00 0.00 0.00 99 1006.9
20260906054159 77 224 0.0 0.0 0.00 0.00 0.00 99 1007.2
20260906053655 77 224 0.0 0.9 0.00 0.00 0.00 99 1006.9
20260906053150 78 208 0.9 0.9 0.00 0.00 0.00 99 1007.2
20260906052645 78 232 0.0 0.0 0.00 0.00 0.00 99 1007.0
20260906052142 78 233 0.0 0.0 0.00 0.00 0.00 99 1006.9
20260906051638 78 233 0.0 0.9 0.00 0.00 0.00 99 1007.2
20260906051137 78 234 0.0 0.0 0.00 0.00 0.00 99 1007.0
20260906050633 78 222 0.0 0.0 0.00 0.00 0.00 99 1006.9
20260906050128 78 222 0.0 0.0 0.00 0.00 0.00 98 1007.3
20260906045627 78 219 0.0 0.0 0.00 0.00 0.00 99 1006.9
20260906045122 78 260 0.0 0.0 0.00 0.00 0.00 99 1007.4
20260906044618 78 272 0.9 0.9 0.00 0.00 0.00 99 1007.3
20260906044113 78 138 0.9 0.9 0.00 0.00 0.00 98 1007.0
20260906043609 78 210 0.0 0.0 0.00 0.00 0.00 98 1007.2
20260906043104 79 211 0.0 0.0 0.00 0.00 0.00 98 1007.0
20260906042603 79 211 0.0 0.0 0.00 0.00 0.00 97 1007.0
20260906042058 79 210 0.0 0.0 0.00 0.00 0.00 98 1007.3
20260906041555 79 211 0.0 0.9 0.00 0.00 0.00 98 1007.2
20260906041049 79 213 0.0 0.0 0.00 0.00 0.00 98 1006.8
20260906040544 79 212 0.0 0.0 0.00 0.00 0.00 99 1006.9
20260906040040 79 212 0.0 0.0 0.00 0.00 0.00 98 1006.9
20260906035535 79 212 0.0 0.0 0.00 0.00 0.00 98 1007.0
20260906035031 79 212 0.0 0.0 0.00 0.00 0.00 97 1006.8
20260906034530 79 212 0.0 0.0 0.00 0.00 0.00 98 1006.9
20260906034026 79 212 0.0 0.0 0.00 0.00 0.00 97 1006.7
20260906033521 79 212 0.0 0.0 0.00 0.00 0.00 97 1007.0
20260906033016 79 212 0.0 0.0 0.00 0.00 0.00 97 1007.0
20260906032512 79 212 0.0 0.0 0.00 0.00 0.00 97 1006.8
20260906032007 80 212 0.0 0.0 0.00 0.00 0.00 97 1006.9
20260906031503 80 218 0.0 0.9 0.00 0.00 0.00 97 1006.7
20260906030957 80 219 0.0 0.0 0.00 0.00 0.00 96 1006.6
20260906030451 80 209 0.0 0.0 0.00 0.00 0.00 96 1006.6
20260906025946 80 209 0.0 0.0 0.00 0.00 0.00 96 1006.8
20260906025440 80 209 0.0 0.0 0.00 0.00 0.00 96 1006.8
20260906024939 80 209 0.0 0.0 0.00 0.00 0.00 95 1006.6
20260906024438 80 209 0.0 0.0 0.00 0.00 0.00 95 1006.6
20260906023933 80 209 0.0 0.0 0.00 0.00 0.00 94 1006.6
20260906023429 80 209 0.0 0.0 0.00 0.00 0.00 94 1006.6
20260906022924 80 208 0.0 0.0 0.00 0.00 0.00 94 1006.3
20260906022420 81 208 0.0 0.0 0.00 0.00 0.00 94 1006.4
20260906021915 81 209 0.0 0.9 0.00 0.00 0.00 94 1006.4
20260906021414 81 209 0.0 0.0 0.00 0.00 0.00 93 1006.3
20260906020909 81 209 0.0 0.0 0.00 0.00 0.00 93 1006.3
20260906020403 82 209 0.0 0.9 0.00 0.00 0.00 92 1006.1
20260906015858 82 231 0.0 0.0 0.00 0.00 0.00 91 1006.1
20260906015356 82 232 0.0 0.9 0.00 0.00 0.00 91 1006.2
20260906014851 82 197 0.0 0.0 0.00 0.00 0.00 90 1006.0
20260906014351 83 196 0.0 0.0 0.00 0.00 0.00 90 1006.1
20260906013847 83 197 0.0 0.9 0.00 0.00 0.00 91 1005.9
20260906013343 83 197 0.0 0.0 0.00 0.00 0.00 88 1005.7
20260906012838 83 197 0.0 0.0 0.00 0.00 0.00 88 1006.0
20260906012333 83 198 0.9 0.9 0.00 0.00 0.00 88 1005.8
20260906011833 84 197 0.0 0.0 0.00 0.00 0.00 88 1006.0
20260906011327 84 199 0.0 0.0 0.00 0.00 0.00 88 1005.9
20260906010823 84 171 0.0 0.0 0.00 0.00 0.00 87 1005.8
20260906010320 84 171 0.0 0.0 0.00 0.00 0.00 87 1005.8
20260906005814 84 171 0.0 0.0 0.00 0.00 0.00 83 1005.6
20260906005313 85 171 0.0 0.0 0.00 0.00 0.00 83 1005.8
20260906004812 86 171 0.0 0.0 0.00 0.00 0.00 84 1005.4
20260906004313 86 171 0.0 0.0 0.00 0.00 0.00 85 1005.6
20260906003808 87 171 0.0 0.0 0.00 0.00 0.00 80 1005.4
20260906003303 87 171 0.0 0.0 0.00 0.00 0.00 79 1005.5
20260906002759 87 171 0.0 0.0 0.00 0.00 0.00 79 1005.3
20260906002258 88 171 0.0 0.0 0.00 0.00 0.00 78 1005.8
20260906001754 89 171 0.0 0.0 0.00 0.00 0.00 80 1005.6
20260906001248 90 171 0.9 0.9 0.00 0.00 0.00 77 1005.5
20260906000743 91 170 0.9 0.9 0.00 0.00 0.00 74 1005.7
20260906000238 92 222 0.0 0.0 0.00 0.00 0.00 72 1005.8
20260905235733 92 222 0.0 0.9 0.00 0.00 0.00 73 1005.7
20260905235233 93 272 0.0 0.0 0.00 0.00 0.00 66 1005.8
20260905234729 94 281 0.0 0.0 0.00 0.00 0.00 60 1005.9
20260905234224 96 320 0.0 0.9 0.00 0.00 0.00 62 1005.8
20260905233719 96 321 0.0 0.9 0.00 0.00 0.00 55 1005.6
20260905233218 96 321 0.9 0.9 0.00 0.00 0.00 54 1005.8
20260905232713 97 321 0.9 0.9 0.00 0.00 0.00 52 1005.9
20260905232209 98 298 1.7 1.7 0.00 0.00 0.00 50 1006.0
20260905231705 98 290 1.7 1.7 0.00 0.00 0.00 51 1006.0
20260905231200 98 302 0.9 0.9 0.00 0.00 0.00 54 1005.9
20260905230656 98 302 0.9 0.9 0.00 0.00 0.00 51 1005.8
20260905230154 99 346 1.7 1.7 0.00 0.00 0.00 54 1005.7
20260905225653 99 350 0.9 0.9 0.00 0.00 0.00 50 1005.7
20260905225148 99 309 1.7 1.7 0.00 0.00 0.00 50 1005.7
20260905224648 99 324 1.7 1.7 0.00 0.00 0.00 51 1005.7
20260905224142 99 238 0.0 0.9 0.00 0.00 0.00 51 1005.5
20260905223639 99 276 1.7 1.7 0.00 0.00 0.00 49 1005.6
20260905223136 100 344 2.6 2.6 0.00 0.00 0.00 52 1005.7
20260905222631 100 295 1.7 1.7 0.00 0.00 0.00 50 1005.8
20260905222126 100 290 1.7 1.7 0.00 0.00 0.00 52 1005.7
20260905221621 100 260 0.9 1.7 0.00 0.00 0.00 48 1005.6
20260905221118 100 271 2.6 3.5 0.00 0.00 0.00 48 1005.6
20260905220613 100 290 1.7 1.7 0.00 0.00 0.00 49 1005.7
20260905220109 100 308 2.6 5.2 0.00 0.00 0.00 49 1005.8
20260905215609 100 280 1.7 2.6 0.00 0.00 0.00 48 1005.8
20260905215104 100 292 1.7 1.7 0.00 0.00 0.00 49 1005.9
20260905214600 100 271 0.9 0.9 0.00 0.00 0.00 50 1005.9
20260905214055 99 194 1.7 1.7 0.00 0.00 0.00 48 1005.8
20260905213550 101 284 2.6 2.6 0.00 0.00 0.00 51 1006.0
20260905213046 101 272 0.9 1.7 0.00 0.00 0.00 49 1005.7
20260905212545 101 255 1.7 1.7 0.00 0.00 0.00 46 1005.8
20260905212045 101 271 1.7 1.7 0.00 0.00 0.00 49 1005.9
20260905211540 101 355 2.6 2.6 0.00 0.00 0.00 48 1006.0
20260905211036 100 48 2.6 2.6 0.00 0.00 0.00 47 1006.1
20260905210531 101 326 1.7 1.7 0.00 0.00 0.00 47 1006.1
20260905210026 101 245 2.6 2.6 0.00 0.00 0.00 45 1006.2
20260905205525 101 336 1.7 2.6 0.00 0.00 0.00 51 1006.2
20260905205025 102 239 1.7 1.7 0.00 0.00 0.00 47 1006.1
20260905204520 100 251 0.9 0.9 0.00 0.00 0.00 47 1006.3
20260905204015 102 238 0.9 0.9 0.00 0.00 0.00 46 1006.1
20260905203510 101 33 0.0 0.9 0.00 0.00 0.00 47 1006.2
20260905203005 101 302 1.7 2.6 0.00 0.00 0.00 47 1006.2
20260905202500 102 207 0.9 0.9 0.00 0.00 0.00 49 1006.6
20260905201955 100 193 2.6 2.6 0.00 0.00 0.00 49 1006.4
20260905201451 100 205 0.9 0.9 0.00 0.00 0.00 48 1006.6
20260905200950 99 179 0.9 0.9 0.00 0.00 0.00 49 1006.7
20260905200446 99 128 0.9 0.9 0.00 0.00 0.00 48 1006.8
20260905195944 98 150 1.7 1.7 0.00 0.00 0.00 52 1006.7
20260905195440 99 168 1.7 2.6 0.00 0.00 0.00 49 1006.9
20260905194935 101 251 0.0 0.0 0.00 0.00 0.00 45 1007.0
20260905194435 102 166 1.7 2.6 0.00 0.00 0.00 46 1007.2
20260905193935 101 189 0.9 0.9 0.00 0.00 0.00 45 1007.3
20260905193430 100 280 0.9 0.9 0.00 0.00 0.00 46 1007.6
20260905192930 99 36 1.7 1.7 0.00 0.00 0.00 49 1007.4
20260905192425 101 204 0.9 0.9 0.00 0.00 0.00 46 1007.5
20260905191921 100 56 0.9 0.9 0.00 0.00 0.00 51 1007.6
20260905191419 100 249 1.7 1.7 0.00 0.00 0.00 48 1007.8
20260905190914 99 295 1.7 2.6 0.00 0.00 0.00 50 1007.8
20260905190412 98 106 3.5 3.5 0.00 0.00 0.00 49 1008.0
20260905185910 100 126 3.5 3.5 0.00 0.00 0.00 49 1008.1
20260905185406 99 79 0.0 0.9 0.00 0.00 0.00 49 1008.0
20260905184904 99 320 4.3 5.2 0.00 0.00 0.00 49 1008.1
20260905184359 100 310 0.9 0.9 0.00 0.00 0.00 49 1008.1
20260905183857 100 110 4.3 5.2 0.00 0.00 0.00 45 1008.3
20260905183353 100 30 1.7 1.7 0.00 0.00 0.00 50 1008.2
20260905182847 99 51 3.5 3.5 0.00 0.00 0.00 50 1008.2
20260905182342 98 280 0.9 1.7 0.00 0.00 0.00 50 1008.1
20260905181837 98 327 5.2 6.1 0.00 0.00 0.00 50 1008.2
20260905181337 99 302 3.5 3.5 0.00 0.00 0.00 50 1008.1
20260905180836 99 314 3.5 3.5 0.00 0.00 0.00 49 1008.3
20260905180331 98 244 1.7 1.7 0.00 0.00 0.00 53 1008.4
20260905175826 98 91 0.9 1.7 0.00 0.00 0.00 52 1008.3
20260905175320 98 82 0.9 1.7 0.00 0.00 0.00 54 1008.5
20260905174815 97 286 1.7 1.7 0.00 0.00 0.00 51 1008.7
20260905174311 97 349 1.7 1.7 0.00 0.00 0.00 57 1008.6
20260905173807 97 22 2.6 2.6 0.00 0.00 0.00 53 1008.5
20260905173303 97 296 0.9 1.7 0.00 0.00 0.00 56 1008.5
20260905172803 97 250 1.7 2.6 0.00 0.00 0.00 54 1008.5
20260905172301 98 290 2.6 2.6 0.00 0.00 0.00 55 1008.6
20260905171757 98 184 0.9 0.9 0.00 0.00 0.00 55 1008.7
20260905171253 98 248 0.9 1.7 0.00 0.00 0.00 52 1008.8
20260905170749 96 201 0.9 1.7 0.00 0.00 0.00 52 1009.0
20260905170245 98 347 1.7 3.5 0.00 0.00 0.00 55 1008.9
20260905165744 97 314 0.0 0.0 0.00 0.00 0.00 54 1008.7
20260905165240 96 301 1.7 1.7 0.00 0.00 0.00 55 1008.9
20260905164740 98 357 4.3 5.2 0.00 0.00 0.00 56 1009.0
20260905164235 96 296 1.7 1.7 0.00 0.00 0.00 54 1009.2
20260905163730 97 322 3.5 3.5 0.00 0.00 0.00 61 1009.0
20260905163227 96 259 1.7 1.7 0.00 0.00 0.00 57 1009.2